Regional Weather Roundup
Issued by NWS

Home | Current Version | Previous Version | Graphics & Text | Print | Product List | Glossary On
Versions: 1 2 3 4 5 6 7 8 9 10 11 12 13 14 15 16 17 18 19 20 21 22 23 24 25 26 27 28 29 30 31 32 33 34 35 36 37 38 39 40 41 42 43 44 45 46 47 48 49 50
000
ASUS45 KCYS 031210
RWRWY

WYOMING REGIONAL WEATHER ROUNDUP
NATIONAL WEATHER SERVICE CHEYENNE WY
600 AM MDT THU SEP 03 2015

NOTE:  "FAIR" INDICATES FEW OR NO CLOUDS BELOW 12,000 FEET
WITH NO SIGNIFICANT WEATHER AND/OR OBSTRUCTIONS TO VISIBILITY.

WYZ001-031300-
YELLOWSTONE NATIONAL PARK

CITY           SKY/WX    TMP DP  RH WIND       PRES   REMARKS
LK YELLOWSTONE   N/A     46  44  93 CALM      30.09F
6HR MIN TEMP:  43; 6HR MAX TEMP:  53; 6HR PCP:  0.12;

W YELLOWSTONE  NOT AVBL

$$
WYZ002>013-054>058-071-098>099-031300-
NORTHERN WYOMING

CITY           SKY/WX    TMP DP  RH WIND       PRES   REMARKS
JACKSON        MOCLDY    54  39  58 SE5       29.99F
CODY           FAIR      63  37  39 CALM      29.90R
GREYBULL       FAIR      60  37  42 CALM      29.80S
6HR MIN TEMP:  59; 6HR MAX TEMP:  72;

WORLAND        FAIR      63  41  44 CALM      29.82S
6HR MIN TEMP:  60; 6HR MAX TEMP:  70;

SHERIDAN       FAIR      65  36  34 NW9       29.84S
6HR MIN TEMP:  64; 6HR MAX TEMP:  73;

BUFFALO        FAIR      67  35  30 NW9       29.90R
6HR MIN TEMP:  66; 6HR MAX TEMP:  80;

GILLETTE       FAIR      69  37  30 SW15      29.83R
6HR MIN TEMP:  68; 6HR MAX TEMP:  77;

HULETT         FAIR      70  36  28 SW8       29.85R
NEWCASTLE      FAIR      63  36  36 CALM      29.88S

$$
WYZ014>020-022>026-101>103-031300-
CENTRAL WYOMING

CITY           SKY/WX    TMP DP  RH WIND       PRES   REMARKS
BIG PINEY      FAIR      45  32  60 NE7       30.09S
6HR MIN TEMP:  45; 6HR MAX TEMP:  56;

PINEDALE       FAIR      45  36  70 CALM      30.11S
DUBOIS         FAIR      50  32  50 CALM      30.07S
LANDER         FAIR      71  36  27 S6        29.94S
6HR MIN TEMP:  65; 6HR MAX TEMP:  74;

RIVERTON       FAIR      65  36  34 S8        29.94S
6HR MIN TEMP:  65; 6HR MAX TEMP:  71;

CASPER         FAIR      61  40  45 SW6       29.97R
6HR MIN TEMP:  58; 6HR MAX TEMP:  71;

DOUGLAS        FAIR      61  40  45 CALM      29.96S
6HR MIN TEMP:  61; 6HR MAX TEMP:  76;


$$
WYZ021-027>030-104>119-031300-
SOUTHERN WYOMING

CITY           SKY/WX    TMP DP  RH WIND       PRES   REMARKS
EVANSTON       FAIR      58  34  40 S9        30.11R
6HR MIN TEMP:  56; 6HR MAX TEMP:  64;

KEMMERER       FAIR      57  32  38 E3        30.11S
FORT BRIDGER   SUNNY     66  34  30 SW14      30.12S
ROCK SPRINGS   FAIR      61  37  41 CALM      30.09R
6HR MIN TEMP:  59; 6HR MAX TEMP:  66;

DIXON          FAIR      51  45  78 CALM      30.14S
RAWLINS        FAIR      64  40  41 SW12      30.10S
6HR MIN TEMP:  61; 6HR MAX TEMP:  67;

SARATOGA       FAIR      54  43  66 SE12      30.14S
LARAMIE        FAIR      53  42  66 SW12      30.16S
6HR MIN TEMP:  50; 6HR MAX TEMP:  55;

CHEYENNE       FAIR      63  44  50 W8        30.07S
6HR MIN TEMP:  62; 6HR MAX TEMP:  67;

TORRINGTON     FAIR      63  47  55 CALM      29.91S
6HR MIN TEMP:  62; 6HR MAX TEMP:  69;

PINE BLUFFS    FAIR      54  43  66 CALM      30.01S

$$



USA.gov is the U.S. government's official web portal to all federal, state and local government web resources and services.